Regional Weather Roundup
Issued by NWS Columbia, SC

Home | Current Version | Previous Version | Text Only | Print | Product List | Glossary On
Versions: 1 2 3 4 5 6 7 8 9 10 11 12 13 14 15 16 17 18 19 20 21 22 23 24 25 26 27 28 29 30 31 32 33 34 35 36 37 38 39 40 41 42 43 44 45 46 47 48 49 50
792
ASUS42 KCAE 280110
RWRCAE
REGIONAL WEATHER ROUNDUP
NATIONAL WEATHER SERVICE COLUMBIA SC
900 PM EDT THU APR 27 2017

NOTE: "FAIR" INDICATES FEW OR NO CLOUDS BELOW 12,000 FEET WITH NO
SIGNIFICANT WEATHER AND/OR OBSTRUCTIONS TO VISIBILITY.

NOT ALL STATIONS ARE QUALITY CONTROLLED BY THE NATIONAL
WEATHER SERVICE. USE DATA WITH CAUTION...ESPECIALLY
DEWPOINT OBSERVATIONS.

SCZ001>056-GAZ040-063>065-077-280200-
...UPSTATE SOUTH CAROLINA...

CITY           SKY/WX    TMP DP  RH WIND       PRES   REMARKS
ANDERSON       CLOUDY    69  66  90 CALM      29.86R
LIBERTY        MOCLDY    64  63  98 CALM      29.86R FOG
SPARTANBURG    CLOUDY    68  64  88 NE3       29.87R
CLEMSON        PTCLDY    67  63  87 N5        29.86R
GREENVILLE     FOG       67  65  93 NE3       29.87S VSB 3/4
GREENWOOD      LGT RAIN  73  65  75 SW12      29.89R
GREER          FOG       64  63  96 CALM      29.87R VSB 1/4
ROCK HILL      CLOUDY    72  67  84 S5        29.87R
CHESTER        CLOUDY    72  64  78 S5        29.88R
LAURENS        CLOUDY    72  68  88 S7        29.86R


...CENTRAL SOUTH CAROLINA...

CITY           SKY/WX    TMP DP  RH WIND       PRES   REMARKS
COLUMBIA APT   CLOUDY    77  66  68 S7        29.86R
COLUMBIA OWENS CLOUDY    76  68  76 VRB3      29.87R
MCENTIRE ANGB  CLOUDY    73  67  83 SE6       29.87S
ORANGEBURG     CLOUDY    75  62  64 SE3       29.88R
SUMTER SHAW    CLOUDY    75  63  66 SE6       29.86R
NEWBERRY       PTCLDY    70  68  94 S6        29.90R
AIKEN          CLOUDY    72  66  83 SW3       29.91R
BARNWELL       CLOUDY    79  66  65 SE3       29.88R
MANNING        FAIR      73  61  64 S15       29.89S
CAMDEN         MOCLDY    75  66  73 CALM      29.88R
LANCASTER      PTCLDY    73  70  88 S5        29.87R


...EASTERN AND COASTAL SOUTH CAROLINA...

CITY           SKY/WX    TMP DP  RH WIND       PRES   REMARKS
MYRTLE BEACH   MOCLDY    73  72  94 SW9       29.93R FOG
N MYRTLE BCH   CLOUDY    73  71  93 SW10      29.93R
CONWAY         FAIR      72  70  94 SE3       29.92S
MARION         FAIR      72  64  78 SE8       29.90F
HARTSVILLE     FAIR      72  63  73 S5        29.88R
FLORENCE       CLOUDY    74  65  73 S8        29.89S
DARLINGTON     CLOUDY    75  66  73 S7        29.89R
CHARLESTON APT CLOUDY    75  64  68 S12       29.89R
MOUNT PLEASANT FAIR      75  73  94 S9G16     29.90R
WALTERBORO     CLOUDY    73  63  68 S7        29.89R
BEAUFORT       CLOUDY    78  66  66 S8        29.88R


...EASTERN GEORGIA...

CITY           SKY/WX    TMP DP  RH WIND       PRES   REMARKS
AUGUSTA BUSH F MOCLDY    72  69  90 CALM      29.86R
AUGUSTA DANIEL MOCLDY    75  64  68 S3        29.87R
THOMSON        CLOUDY    70  67  92 N3        29.93R
WASHINGTON     TSTM      72  72 100 SW7       29.87S
CLAXTON        FAIR      80  67  65 SE5       29.87R
SYLVANIA       PTCLDY   N/A N/A N/A S6        29.88R
STATESBORO     CLEAR     79  64  58 S7        29.87R
SAVANNAH       PTCLDY    77  63  61 S15       29.88R


...SOUTHERN NORTH CAROLINA...

CITY           SKY/WX    TMP DP  RH WIND       PRES   REMARKS
CHARLOTTE      CLOUDY    73  65  75 S3        29.87R
MONROE         PTCLDY    72  65  78 VRB5      29.85R
WADESBORO      PTCLDY    74  64  70 SE8       29.85S
ROCKINGHAM     MOCLDY    76  66  73 SE10G17   29.87S
RUTHERFORDTON  CLOUDY    63  63 100 CALM      29.89R FOG
ASHEVILLE      PTCLDY    62  59  90 S3        29.90R

$$




USA.gov is the U.S. government's official web portal to all federal, state and local government web resources and services.